Date,TemperatureHighF,TemperatureAvgF,TemperatureLowF,DewpointHighF,DewpointAvgF,DewpointLowF,HumidityHigh,HumidityAvg,HumidityLow,PressureMaxIn,PressureMinIn,WindSpeedMaxMPH,WindSpeedAvgMPH,GustSpeedMaxMPH,PrecipitationSumIn
2013-2-1,58.3,55.9,49.5,53.1,51.1,46.2,89,84,82,30.00,29.79,1,0,4,0.00
2013-2-2,58.3,55.8,53.6,49.5,40.0,31.6,82,57,40,29.32,29.14,4,1,8,0.00
2013-2-3,55.2,51.8,50.4,21.6,15.2,6.6,28,24,14,29.79,29.70,1,0,2,0.00
2013-2-5,59.2,56.6,50.5,47.7,46.3,43.9,78,69,64,29.97,29.82,2,1,4,0.00
2013-2-6,57.2,54.1,46.4,33.6,22.0,13.5,41,29,19,29.55,29.41,6,3,13,0.00
2013-2-7,52.7,50.4,50.0,11.7,7.1,-1.1,21,17,11,29.73,29.55,4,2,6,0.00
2013-2-8,52.9,46.6,40.3,16.9,6.6,0.3,28,20,14,29.85,29.79,2,0,5,0.00
2013-2-9,55.0,49.5,40.6,23.0,6.5,-12.8,39,20,6,29.94,29.91,4,1,8,0.00
2013-2-10,48.4,44.8,37.8,31.6,25.0,13.3,68,47,28,30.00,29.91,3,1,4,0.00
2013-2-11,44.8,40.7,38.8,36.9,35.9,34.9,89,83,69,29.55,29.44,9,2,13,1.47
2013-2-12,51.6,45.0,38.7,37.6,34.5,32.4,80,67,56,29.73,29.55,1,0,4,0.00
2013-2-13,54.7,52.3,40.6,40.6,38.3,32.0,72,59,52,29.88,29.82,4,2,8,0.00
2013-2-14,55.6,52.3,43.0,39.9,34.8,25.0,68,52,40,30.12,30.06,4,1,8,0.00
2013-2-15,57.2,52.9,45.7,44.4,39.1,35.6,72,60,46,30.00,29.94,4,2,10,0.00
2013-2-16,58.6,48.0,45.0,42.4,36.2,33.1,66,64,55,30.15,30.12,2,0,3,0.00
2013-2-17,53.6,48.1,45.9,41.7,39.9,38.7,76,74,62,30.12,30.06,1,0,2,0.00
2013-2-18,55.8,51.7,45.3,36.9,31.1,21.9,58,46,27,30.09,30.03,4,2,9,0.00
2013-2-19,53.8,52.2,42.6,44.2,41.2,32.4,73,66,59,30.09,29.94,5,3,12,0.00
2013-2-20,57.2,56.1,54.9,46.0,44.2,41.7,69,65,57,29.91,29.85,1,0,2,0.00
2013-2-21,57.2,50.8,47.3,45.9,42.1,39.0,81,72,63,29.79,29.70,4,1,6,0.05
2013-2-22,42.1,42.1,42.1,39.0,39.0,39.0,89,89,89,29.61,29.61,0,0,2,0.00
2013-2-23,46.9,45.4,42.4,34.9,32.6,31.5,72,61,55,29.53,29.41,3,1,6,0.04
2013-2-24,50.5,45.3,40.3,39.7,37.4,35.8,87,74,62,29.76,29.55,4,1,8,0.07
2013-2-25,51.6,49.8,39.6,36.1,34.0,30.2,74,55,47,29.97,29.88,6,4,10,0.00
2013-2-26,57.2,51.1,47.8,38.7,32.1,29.5,51,48,43,30.17,30.09,6,2,12,0.00
2013-2-27,55.9,54.3,46.0,41.7,39.7,29.8,67,58,48,30.26,30.20,4,3,8,0.00
2013-2-28,57.4,54.1,45.5,45.0,40.8,33.3,72,61,47,30.26,30.15,7,2,10,0.00